Home > Weather > Charlottesville > Past weeks

Flag for USA Past Weather in Charlottesville, Virginia, USA — Yesterday and Last 2 Weeks

Now
64 °F

Sunny.


Feels Like: 64 °F
Forecast: 62 / 79 °F
Wind: 5 mph from South

Location: Charlottesville-Albemarle Airport

Current Time: May 29, 2016 at 7:48:25 AM

Latest Report: May 29, 2016 at 6:53 AM


Visibility: 8 mi

Pressure: 30.13 "Hg

Humidity: 90%

Dew Point: 61 °F

Location of CharlottesvilleLocation

Past Weather in Charlottesville — Graph

°F

Charlottesville Temperature Yesterday

Maximum temperature yesterday: 88 °F (at 3:53 PM)
Minimum temperature yesterday: 68 °F (at 5:53 AM)
Average temperature yesterday: 77 °F

High & Low Weather Summary for the Past Weeks

 TemperatureHumidityPressure
High88 °F (May 28, 3:53 PM)93% (May 17, 8:53 PM)30.26 "Hg (May 17, 8:53 PM)
Low40 °F (May 16, 5:53 AM)25% (May 16, 4:53 PM)29.69 "Hg (May 14, 4:53 PM)
Average64 °F66%30.05 "Hg
* Reported May 14 5:53 AM — May 29 5:53 AM, Charlottesville, Weather by CustomWeather, © 2016

Note: Actual official high and low records may vary slightly from our data, if they occured in-between our weather recording intervals... More about our weather records

Advertising

Charlottesville Weather History for the Previous 24 Hours

Scroll right to see more
 ConditionsComfort  
Time TempWeatherWind HumidityBarometerVisibility
5:53 AM
Sun, May 29
63 °FFog.3 mph90%30.12 "Hg6 mi
4:53 AM63 °FClear.No wind90%30.11 "Hg8 mi
3:53 AM64 °FClear.No wind90%30.11 "Hg8 mi
2:53 AM65 °FClear.6 mph87%30.11 "Hg10 mi
1:53 AM65 °FClear.3 mph87%30.12 "Hg10 mi
12:53 AM69 °FClear.No wind73%30.13 "Hg10 mi
11:53 PM
Sat, May 28
70 °FClear.No wind73%30.14 "Hg10 mi
10:53 PM73 °FClear.3 mph66%30.13 "Hg10 mi
9:53 PM72 °FClear.7 mph71%30.13 "Hg10 mi
8:53 PM76 °FSunny.7 mph62%30.11 "Hg10 mi
7:53 PM79 °FSunny.6 mph56%30.11 "Hg10 mi
6:53 PM84 °FSunny.9 mph46%30.09 "Hg10 mi
5:53 PM85 °FSunny.10 mph45%30.09 "Hg10 mi
4:53 PM85 °FSunny.10 mph43%30.09 "Hg10 mi
3:53 PM88 °FSunny.10 mph42%30.10 "Hg10 mi
2:53 PM87 °FSunny.10 mph43%30.12 "Hg10 mi
1:53 PM87 °FSunny.10 mph46%30.14 "Hg10 mi
12:53 PM86 °FSunny.10 mph46%30.14 "Hg10 mi
11:53 AM84 °FSunny.9 mph57%30.15 "Hg10 mi
10:53 AM82 °FSunny.6 mph63%30.15 "Hg10 mi
9:53 AM78 °FSunny.3 mph69%30.14 "Hg10 mi
8:53 AM74 °FSunny.3 mph74%30.14 "Hg10 mi
7:53 AM71 °FSunny.6 mph78%30.13 "Hg10 mi
Weather by CustomWeather, © 2016

See weather overviewHow to use our weather pages